Flag for U.S.A. Weather past 2 weeks in Allentown, Pennsylvania, U.S.A.

Now
79 °F

Strong thunderstorms. Fog.


Feels Like: 82 °F
Forecast: 72 / 86 °F
Wind: 12 mph from West

Location: Lehigh Valley International Airport

Current Time: Jul 30, 2015 at 2:54:47 PM

Latest Report: Jul 30, 2015 at 1:57 PM


Visibility: 0 mi

Pressure: 29.87 "Hg

Humidity: 84%

Dew point: 73 °F

Location of AllentownLocation

Historic Weather in Allentown — Graph

°F

Allentown temperature yesterday

Maximum temperature yesterday: 92 °F (at 1:51 PM)
Minimum temperature yesterday: 68 °F (at 5:51 AM)
Average temperature yesterday: 81 °F

Past Weeks' High & Low Weather Summary

 TemperatureHumidityPressure
High93 °F (Jul 19, 2:51 PM)96% (Jul 28, 4:51 AM)30.11 "Hg (Jul 28, 4:51 AM)
Low57 °F (Jul 16, 4:51 AM)30% (Jul 24, 5:51 PM)29.60 "Hg (Jul 21, 5:51 PM)
Average76 °F67%29.91 "Hg
* Reported Jul 15 1:58 PM — Jul 30 1:57 PM, Allentown, Weather by CustomWeather, © 2015

Note: Actual official high and low records may vary slightly from our data, if they occured in-between our weather recording intervals... More about our weather records

Advertising

Allentown weather history for previous 24 hours

 ConditionsComfort  
Time TempWeatherWind HumidityBarometerVisibility
1:57 PM
Thu, Jul 30
79 °FStrong thunderstorms. Fog.12 mph84%29.87 "Hg0 mi
12:51 PM85 °FMostly cloudy.9 mph72%29.85 "Hg9 mi
11:51 AM85 °FPartly sunny.10 mph72%29.88 "Hg8 mi
10:51 AM82 °FOvercast.7 mph77%29.88 "Hg9 mi
9:51 AM81 °FOvercast.8 mph79%29.88 "Hg8 mi
8:51 AM80 °FOvercast.7 mph79%29.89 "Hg9 mi
7:51 AM79 °FOvercast.7 mph82%29.90 "Hg8 mi
6:51 AM78 °FOvercast.5 mph84%29.90 "Hg8 mi
5:51 AM75 °FPassing clouds.No wind88%29.89 "Hg9 mi
4:59 AM75 °FPassing clouds.No wind89%29.91 "Hg9 mi
3:51 AM75 °FPassing clouds.No wind88%29.90 "Hg10 mi
2:51 AM75 °FPassing clouds.No wind88%29.92 "Hg10 mi
1:51 AM78 °FClear.6 mph82%29.93 "Hg10 mi
12:51 AM76 °FClear.5 mph85%29.94 "Hg10 mi
11:51 PM
Wed, Jul 29
77 °FClear.3 mph82%29.93 "Hg10 mi
10:51 PM80 °FClear.9 mph74%29.93 "Hg10 mi
9:51 PM82 °FClear.8 mph70%29.94 "Hg10 mi
8:51 PM83 °FSunny.9 mph68%29.92 "Hg10 mi
7:51 PM82 °FSunny.6 mph58%29.92 "Hg10 mi
6:51 PM90 °FSunny.9 mph39%29.91 "Hg10 mi
5:51 PM89 °FSunny.10 mph46%29.91 "Hg10 mi
4:51 PM90 °FPassing clouds.8 mph47%29.93 "Hg10 mi
3:51 PM91 °FScattered clouds.5 mph45%29.94 "Hg10 mi
2:51 PM91 °FBroken clouds.8 mph47%29.96 "Hg10 mi
Weather by CustomWeather, © 2015

See weather overviewHow to use our weather pages